Location: San Antonio
(29.4240°N, 98.4930°W)
Time: 18:09:29
(UTC-05:00)

ZACube-1 - Pass Details

Date: 11 August 2024
Orbit: 561 x 628 km, 97.7° (Epoch: 15 September)

Event Time Altitude Azimuth Distance (km) Brightness Sun altitude
Rises 03:40:24 0° 26° (NNE) 2,918 ? -36.8°
Reaches altitude 10° 03:42:52 10° 38° (NE) 2,012 ? -36.4°
Enters shadow 03:44:20 18° 52° (NE) 1,554 ? -36.2°
